Dewpoint
26 23 21 19 22 17 15 15 15 16 17 18 16 16 17 18 21 20 18 19 20 20 22 22 23 24 27 27 27 26 26 29 33 33 32 32 32 32 32 32 30 29 30 29
25 23 23 23 21 22 21 19 17 18 20 19 19 18 18 19 19 18 18 18 18 18 18 19 20 23 27 27 26 26 25 27 30 31 31 31 31 31 31 32 30 28 28 28
21 21 26 23 21 20 20 20 18 18 20 20 18 16 18 19 20 19 20 19 19 19 19 19 20 23 25 27 26 26 26 26 28 29 29 27 26 26 28 29 28 26 27 27
24 25 23 24 21 21 17 21 21 20 19 15 18 12 12 14 14 14 15 16 18 18 20 21 21 23 24 25 27 27 26 26 27 28 28 26 26 26 27 27 29 27 26 26
18 21 22 22 22 22 20 20 19 21 19 20 18 15 19 14 13 14 15 16 17 17 17 18 18 19 23 25 27 27 26 26 26 27 27 26 26 26 26 27 27 27 24 25
23 23 22 20 22 23 22 20 21 22 19 17 17 15 12 12 12 17 12 13 15 16 18 19 20 21 23 26 26 25 25 25 26 27 26 25 25 24 25 25 26 25 24 23
19 19 22 21 19 23 20 19 16 14 16 15 17 16 12 14 14 14 14 14 16 19 19 19 22 23 24 25 24 24 25 25 25 26 26 26 25 23 23 23 24 24 24 23
20 26 19 20 20 18 20 19 19 15 13 15 18 15 18 16 16 18 17 18 18 19 20 21 24 25 25 25 24 23 24 24 24 25 25 25 24 24 23 23 24 23 23 23
19 20 19 21 20 18 17 18 21 21 23 19 17 17 17 19 17 20 15 18 20 21 20 20 24 25 25 24 24 24 24 25 24 25 25 24 24 24 23 22 23 23 23 21
22 19 20 19 23 21 18 20 18 20 17 16 15 14 17 17 17 18 17 19 26 24 21 20 22 26 25 26 24 24 24 24 25 25 24 24 24 24 23 22 22 22 22 21
21 27 26 29 24 22 25 19 19 20 22 19 19 18 18 18 18 18 22 28 28 27 29 29 29 29 29 28 26 25 24 24 25 25 25 25 25 24 23 22 22 22 22 20
25 34 31 28 31 26 23 25 24 22 20 20 20 20 23 22 22 28 30 31 31 29 27 28 29 29 30 31 33 31 27 26 26 25 25 25 25 24 23 22 22 22 21 20
38 34 28 29 27 32 31 32 31 32 32 28 26 25 27 25 25 28 24 20 20 20 21 23 25 27 28 29 30 29 29 28 28 27 25 25 24 24 23 22 21 21 21 20
39 34 31 26 26 30 30 31 33 33 29 27 28 27 27 27 25 24 20 13 13 15 18 21 24 26 28 29 29 28 27 27 28 27 26 25 24 24 24 23 22 21 21 20
36 31 31 30 33 33 32 30 28 28 28 26 26 27 27 23 23 23 23 19 16 16 21 25 27 28 31 29 29 28 28 28 28 27 27 27 26 25 24 25 25 22 22 20
33 27 28 23 23 21 22 25 25 25 24 25 25 22 21 20 19 17 19 23 17 19 23 28 25 31 27 25 28 27 29 30 29 28 28 27 28 27 26 26 25 22 21 21
28 26 23 18 19 20 15 18 21 20 18 21 18 19 21 18 13 8 14 25 15 23 26 29 24 23 24 25 28 26 29 31 29 29 28 28 27 27 27 25 24 22 21 21
24 23 22 18 15 8 13 22 23 22 22 22 22 20 21 19 15 15 25 15 16 19 25 23 19 19 23 23 25 27 29 28 29 29 28 27 26 25 25 23 24 22 21 20
25 22 14 10 2 9 12 16 16 17 18 20 17 19 21 20 19 4 9 14 20 22 27 20 19 21 22 22 24 27 22 25 27 28 29 27 26 24 23 22 22 22 21 21
15 22 18 3 5 -4 14 12 17 20 10 17 18 19 21 19 7 5 10 19 20 23 20 17 17 19 22 22 24 21 20 22 21 24 26 27 24 22 21 21 19 20 22 22
-2 -4 3 1 -6 1 13 14 11 1 2 12 19 20 19 18 14 14 18 18 21 22 15 14 13 12 14 23 18 17 19 18 19 21 20 25 27 24 22 22 18 18 20 19
3 -4 -9 -11 -11 -12 16 10 2 7 15 14 13 18 18 18 18 20 17 15 17 13 12 11 10 9 11 13 14 14 13 14 16 17 19 22 22 25 22 20 18 18 18 19
1 6 -2 0 -1 12 16 14 13 18 15 16 18 20 18 19 17 16 13 14 14 11 10 10 12 12 11 13 13 11 11 11 12 14 15 15 17 22 22 21 20 18 18 16
11 10 7 8 8 8 9 11 12 13 13 13 16 19 20 18 15 13 12 12 10 11 12 12 11 10 10 10 11 10 9 9 9 8 8 9 12 15 22 20 20 19 18 17
11 13 10 10 9 9 11 12 12 12 14 16 17 15 14 13 11 11 11 11 10 10 9 9 10 9 8 8 7 7 6 5 4 5 5 6 8 11 17 20 19 18 19 19
13 10 8 7 8 8 8 11 14 15 15 13 11 11 12 11 10 8 7 7 7 7 7 6 5 5 4 3 3 3 3 1 1 1 1 2 5 8 11 17 17 21 23 23
Lifted_Index
7 6 5 5 5 6 6 5 5 5 6 6 7 7 8 8 7 6 6 5 5 5 6 6 6 6 7 7 8 8 9 8 8 9 9 9 9 10 11 13 14 15 16 16
6 5 5 5 6 6 5 5 5 5 6 7 7 7 8 8 7 6 6 6 6 6 6 6 6 6 6 7 7 8 8 9 9 9 9 9 10 10 11 12 13 15 16 16
5 5 5 5 5 5 5 4 5 6 6 7 7 7 7 7 7 6 6 6 6 6 6 6 6 6 6 7 7 8 8 9 9 9 9 9 10 10 11 11 12 14 15 16
5 5 5 5 5 5 5 5 5 6 5 6 6 5 6 7 7 7 6 7 7 7 7 7 6 6 6 7 7 7 8 9 9 9 9 9 10 10 10 11 12 13 14 15
4 5 5 5 5 5 5 5 5 5 5 5 5 4 5 6 7 7 7 7 7 7 7 7 7 7 7 7 7 7 7 8 9 9 9 9 9 9 10 10 11 12 13 14
4 5 5 5 4 4 4 4 4 4 3 3 4 4 4 6 7 7 7 7 7 7 7 8 8 7 7 7 7 7 7 8 8 9 9 9 9 9 10 10 10 11 12 13
4 4 4 4 3 3 3 3 2 2 2 2 3 4 4 6 7 7 7 7 7 7 7 7 7 7 7 7 7 8 8 8 8 9 9 9 9 9 10 10 10 10 11 11
3 4 4 4 3 3 3 2 1 1 1 2 3 3 4 6 6 7 7 6 6 6 6 6 7 7 6 6 7 7 8 8 9 9 9 9 9 9 9 9 9 10 10 10
3 4 5 4 4 4 3 3 2 1 1 1 2 3 4 5 5 6 6 5 5 4 5 5 6 6 6 6 6 7 7 8 8 8 8 8 9 8 8 8 9 9 9 10
3 4 5 5 4 4 4 3 2 1 0 0 1 2 3 4 5 5 5 4 4 4 4 4 5 5 6 6 6 7 7 8 8 8 8 8 8 8 8 8 8 8 9 9
2 3 4 4 4 4 3 3 2 1 0 0 1 2 3 4 4 4 4 4 5 4 4 4 5 5 5 5 6 6 7 7 8 8 8 8 8 8 8 8 8 7 8 8
2 2 2 2 3 3 2 2 1 1 1 1 1 1 2 3 3 4 4 5 5 5 5 5 5 5 5 5 5 6 6 6 7 7 7 7 8 8 8 8 8 8 8 8
1 1 1 1 2 2 2 1 1 1 1 1 1 2 2 2 2 3 4 5 5 6 6 6 6 5 5 5 5 6 6 6 6 6 6 6 6 7 7 8 8 8 8 8
1 1 1 1 1 1 1 1 1 1 1 1 2 2 2 2 2 3 3 4 5 6 6 6 6 6 5 5 6 7 7 7 7 7 6 5 5 6 6 7 8 8 8 8
2 1 1 2 1 1 1 1 1 1 2 2 2 3 3 3 3 3 4 5 5 6 7 8 8 8 8 7 7 8 9 9 9 8 7 6 5 5 6 6 6 7 8 8
2 2 2 2 2 2 2 2 2 2 3 3 3 3 4 4 4 5 5 6 6 8 9 10 11 11 11 10 9 10 10 11 11 10 9 8 7 6 6 6 6 6 7 8
3 3 3 3 3 3 3 3 4 4 4 4 3 4 4 5 5 6 7 8 9 10 12 13 14 14 14 13 13 13 13 13 12 11 11 10 9 8 7 7 6 6 6 6
4 4 4 3 3 3 4 5 5 4 4 4 4 4 5 6 7 8 9 11 12 12 13 14 15 15 15 15 16 16 15 15 14 13 11 11 11 10 9 9 8 7 7 7
5 5 4 3 2 2 4 5 5 5 4 4 5 5 6 7 7 8 10 11 12 13 13 14 15 15 16 16 16 16 16 16 15 14 13 13 12 12 11 10 9 9 9 9
5 5 4 3 2 3 4 5 5 4 4 5 6 7 8 8 7 8 10 11 11 12 12 13 14 14 15 15 16 16 16 16 16 16 15 15 14 13 13 11 10 10 10 10
5 4 4 3 3 3 5 6 5 5 5 7 8 8 8 8 8 9 10 11 11 11 11 12 13 13 14 14 15 15 16 16 16 16 16 16 15 14 13 12 11 10 9 9
4 4 4 4 4 4 5 6 6 6 7 7 8 8 8 8 9 9 10 10 11 11 11 11 12 12 13 13 14 14 14 15 15 16 16 16 16 15 14 13 12 11 9 9
5 5 5 5 5 5 6 6 6 6 7 7 8 8 8 8 8 9 9 10 10 10 10 11 11 12 12 13 13 13 14 14 15 16 16 16 16 15 14 14 13 11 10 9
6 6 6 6 6 6 6 6 5 6 6 6 7 7 7 7 7 8 8 9 9 9 9 10 10 10 11 12 12 13 13 14 14 15 16 16 16 15 14 14 13 12 11 10
6 6 5 5 5 5 5 5 5 5 5 5 5 5 5 5 5 6 7 7 8 8 8 8 9 9 10 11 12 13 14 14 14 15 15 15 15 15 15 14 13 13 12 11
5 5 5 5 5 4 5 5 5 4 4 4 4 4 4 4 4 5 6 6 7 7 7 7 8 9 10 11 12 13 14 15 15 14 14 15 15 15 15 14 14 13 12 11